Regional Weather Roundup
Issued by NWS

Home | Current Version | Previous Version | Text Only | Print | Product List | Glossary Off
Versions: 1 2 3 4 5 6 7 8 9 10 11 12 13 14 15 16 17 18 19 20 21 22 23 24 25 26 27 28 29 30 31 32 33 34 35 36 37 38 39 40 41 42 43 44 45 46 47 48 49 50

000
ASUS43 KLMK 280902
RWRKY
KENTUCKY REGIONAL WEATHER ROUNDUP
NATIONAL WEATHER SERVICE LOUISVILLE KY
400 AM EST SUN DEC 28 2014

NOTE "FAIR" INDICATES FEW OR NO CLOUDS BELOW 12,000 FEET
WITH NO SIGNIFICANT WEATHER AND/OR OBSTRUCTIONS TO VISIBILITY.

KYZ001>023-026-027-061>063-070>075-281000-
WESTERN AND SOUTH CENTRAL KENTUCKY

CITY           SKY/WX    TMP DP  RH WIND       PRES   REMARKS
PADUCAH        CLOUDY    37  34  89 N10       30.18R WCI  30
HENDERSON      CLOUDY    37  32  81 N8        30.16F WCI  31
OWENSBORO      CLOUDY    38  37  96 N9        30.15R FOG     WCI  31
HOPKINSVILLE   CLOUDY    40  38  95 NW10G20   30.13R WCI  33
BOWLING GREEN  CLOUDY    45  43  93 NW13G18   30.09R FOG
GLASGOW        NOT AVBL
$$

KYZ024-025-028>034-038-045-046-053-281000-
NORTH CENTRAL KENTUCKY

CITY           SKY/WX    TMP DP  RH WIND       PRES   REMARKS
LOUISVILLE/SDF CLOUDY    40  38  93 NW10      30.10R FOG     WCI  33
LOUISVILLE/LOU LGT RAIN  41  39  93 NW7       30.10R FOG
FORT KNOX      CLOUDY    40  39  96 NW10      30.08R WCI  33
$$

KYZ035>037-039>044-047>052-055>060-089>105-281000-
NORTHEAST KENTUCKY

CITY           SKY/WX    TMP DP  RH WIND       PRES   REMARKS
LEXINGTON      CLOUDY    47  46  97 SW6       30.04F
COVINGTON      CLOUDY    39  34  82 NW9G18    30.06R WCI  33
FRANKFORT      CLOUDY    47  45  93 CALM      30.03S
$$

KYZ054-064>069-076>088-106>120-281000-
SOUTHEAST KENTUCKY

CITY           SKY/WX    TMP DP  RH WIND       PRES   REMARKS
JACKSON        FOG       46  44  93 SW3       30.04F VSB 1/2
LONDON         CLOUDY    47  43  86 CALM      30.05F FOG
SOMERSET       NOT AVBL
MIDDLESBORO    DRIZZLE   47  47 100 CALM      30.06F
MONTICELLO     FOG       47  47 100 CALM      30.08F VSB 1/2
$$




USA.gov is the U.S. government's official web portal to all federal, state and local government web resources and services.